• In Germany
  • List of Countries
  • For 7 days
  • Water Temperature
  • Satellite Maps
  • Weather Map
  • Weather Widgets
  • user-avatar
    Login

    Hourly Weather Mauritius

    Today, 21 February, Wednesday

    Time Temperature Precipitation Wind Pressure Humidity
    00:00 +25°C° 0.2 mm 1 mps 721 mmHg 82%
    01:00 +25°C° 0.2 mm 1 mps 721 mmHg 83%
    02:00 +25°C° 0.4 mm 2 mps 720 mmHg 82%
    03:00 +25°C° 0.4 mm 2 mps 720 mmHg 82%
    04:00 +25°C° 0.4 mm 2 mps 720 mmHg 82%
    05:00 +25°C° 0.3 mm 2 mps 720 mmHg 81%
    06:00 +26°C° 0.3 mm 2 mps 720 mmHg 80%
    07:00 +26°C° 0.3 mm 3 mps 721 mmHg 80%
    08:00 +26°C° 0.8 mm 3 mps 721 mmHg 77%
    09:00 +27°C° 0.8 mm 3 mps 721 mmHg 75%
    10:00 +28°C° 0 mm 2 mps 721 mmHg 74%
    11:00 +28°C° 0.7 mm 2 mps 721 mmHg 72%
    12:00 +29°C° 0.7 mm 2 mps 721 mmHg 71%
    13:00 +29°C° 0.7 mm 2 mps 721 mmHg 69%
    14:00 +29°C° 0.9 mm 2 mps 720 mmHg 71%
    15:00 +28°C° 0.9 mm 2 mps 720 mmHg 72%
    16:00 +28°C° 0.9 mm 2 mps 720 mmHg 73%
    17:00 +28°C° 0.5 mm 2 mps 720 mmHg 74%
    18:00 +27°C° 0.5 mm 2 mps 720 mmHg 75%
    19:00 +27°C° 0.5 mm 2 mps 721 mmHg 77%
    20:00 +27°C° 0 mm 2 mps 721 mmHg 78%
    21:00 +27°C° 0 mm 2 mps 721 mmHg 78%
    22:00 +27°C° 0 mm 2 mps 721 mmHg 79%
    23:00 +26°C° 0 mm 2 mps 721 mmHg 80%

    Tomorrow, 22 February, Thursday

    Time Temperature Precipitation Wind Pressure Humidity
    00:00 +26°C° 0 mm 2 mps 721 mmHg 80%
    01:00 +26°C° 0 mm 2 mps 720 mmHg 81%
    02:00 +26°C° 0.2 mm 3 mps 720 mmHg 81%
    03:00 +26°C° 0.2 mm 3 mps 720 mmHg 82%
    04:00 +26°C° 0.2 mm 3 mps 720 mmHg 82%
    05:00 +26°C° 0.3 mm 3 mps 720 mmHg 82%
    06:00 +26°C° 0.3 mm 3 mps 720 mmHg 83%
    07:00 +26°C° 0.3 mm 4 mps 720 mmHg 83%
    08:00 +27°C° 0 mm 4 mps 720 mmHg 80%
    09:00 +28°C° 0 mm 4 mps 721 mmHg 77%
    10:00 +28°C° 0 mm 4 mps 721 mmHg 74%
    11:00 +29°C° 0.4 mm 3 mps 721 mmHg 73%
    12:00 +29°C° 0.4 mm 3 mps 721 mmHg 72%
    13:00 +29°C° 0.4 mm 3 mps 720 mmHg 71%
    14:00 +29°C° 0.5 mm 3 mps 720 mmHg 71%
    15:00 +29°C° 0.5 mm 3 mps 720 mmHg 71%
    16:00 +29°C° 0.5 mm 2 mps 720 mmHg 71%
    17:00 +28°C° 0.9 mm 2 mps 720 mmHg 74%
    18:00 +28°C° 0.9 mm 2 mps 720 mmHg 76%
    19:00 +27°C° 0.9 mm 2 mps 720 mmHg 79%
    20:00 +27°C° 1.3 mm 2 mps 720 mmHg 80%
    21:00 +26°C° 1.3 mm 2 mps 721 mmHg 82%
    22:00 +26°C° 1.3 mm 3 mps 721 mmHg 83%
    23:00 +26°C° 1.3 mm 2 mps 721 mmHg 83%

    Day after tomorrow, 23 February, Friday

    Time Temperature Precipitation Wind Pressure Humidity
    00:00 +26°C° 1.3 mm 2 mps 721 mmHg 83%
    01:00 +26°C° 1.3 mm 2 mps 720 mmHg 83%
    02:00 +26°C° 0.4 mm 2 mps 720 mmHg 83%
    03:00 +26°C° 0.4 mm 3 mps 720 mmHg 83%
    04:00 +26°C° 0.4 mm 3 mps 720 mmHg 84%
    05:00 +26°C° 0.3 mm 3 mps 720 mmHg 83%
    06:00 +26°C° 0.3 mm 4 mps 720 mmHg 82%
    07:00 +26°C° 0.3 mm 5 mps 720 mmHg 82%
    08:00 +27°C° 0 mm 5 mps 720 mmHg 79%
    09:00 +27°C° 0 mm 5 mps 721 mmHg 76%
    10:00 +28°C° 0 mm 5 mps 721 mmHg 73%
    11:00 +29°C° 0.2 mm 5 mps 721 mmHg 73%
    12:00 +29°C° 0.2 mm 5 mps 720 mmHg 72%
    13:00 +29°C° 0.2 mm 5 mps 720 mmHg 71%
    14:00 +29°C° 0.7 mm 5 mps 720 mmHg 72%
    15:00 +28°C° 0.7 mm 4 mps 720 mmHg 73%
    16:00 +28°C° 0.7 mm 4 mps 719 mmHg 74%
    17:00 +27°C° 0.7 mm 4 mps 720 mmHg 75%
    18:00 +27°C° 0.7 mm 4 mps 720 mmHg 76%
    19:00 +27°C° 0.7 mm 3 mps 720 mmHg 76%
    20:00 +26°C° 0.6 mm 4 mps 721 mmHg 77%
    21:00 +26°C° 0.6 mm 4 mps 721 mmHg 78%
    22:00 +26°C° 0.6 mm 4 mps 721 mmHg 79%
    23:00 +26°C° 0.5 mm 4 mps 721 mmHg 80%

    24 February, Saturday

    Time Temperature Precipitation Wind Pressure Humidity
    00:00 +26°C° 0.5 mm 3 mps 721 mmHg 80%
    01:00 +26°C° 0.5 mm 3 mps 721 mmHg 80%
    02:00 +26°C° 0.7 mm 3 mps 720 mmHg 80%
    03:00 +26°C° 0.7 mm 3 mps 720 mmHg 81%
    04:00 +26°C° 0.7 mm 3 mps 720 mmHg 81%
    05:00 +26°C° 0.5 mm 4 mps 720 mmHg 81%
    06:00 +26°C° 0.5 mm 4 mps 721 mmHg 81%
    07:00 +26°C° 0.5 mm 4 mps 721 mmHg 81%
    08:00 +27°C° 0.5 mm 4 mps 721 mmHg 78%
    09:00 +28°C° 0.5 mm 4 mps 722 mmHg 75%
    10:00 +28°C° 0.5 mm 4 mps 722 mmHg 72%
    11:00 +29°C° 0 mm 4 mps 722 mmHg 69%
    12:00 +30°C° 0 mm 4 mps 721 mmHg 66%
    13:00 +30°C° 0 mm 4 mps 721 mmHg 63%
    14:00 +30°C° 0.5 mm 4 mps 721 mmHg 65%
    15:00 +29°C° 0.5 mm 3 mps 721 mmHg 68%
    16:00 +29°C° 0.5 mm 3 mps 720 mmHg 70%
    17:00 +28°C° 0.5 mm 3 mps 721 mmHg 73%
    18:00 +27°C° 0.5 mm 3 mps 721 mmHg 76%
    19:00 +27°C° 0.5 mm 3 mps 721 mmHg 79%
    20:00 +27°C° 0.4 mm 3 mps 722 mmHg 80%
    21:00 +27°C° 0.4 mm 3 mps 722 mmHg 81%
    22:00 +26°C° 0.4 mm 3 mps 722 mmHg 82%
    23:00 +26°C° 0.6 mm 3 mps 722 mmHg 82%

    25 February, Sunday

    Time Temperature Precipitation Wind Pressure Humidity
    00:00 +26°C° 0.6 mm 3 mps 722 mmHg 83%
    01:00 +26°C° 0.6 mm 3 mps 721 mmHg 83%
    02:00 +26°C° 0.8 mm 3 mps 721 mmHg 83%
    03:00 +26°C° 0.8 mm 3 mps 721 mmHg 83%
    04:00 +26°C° 0.8 mm 3 mps 720 mmHg 83%
    05:00 +26°C° 0.3 mm 3 mps 721 mmHg 83%
    06:00 +26°C° 0.3 mm 3 mps 721 mmHg 83%
    07:00 +26°C° 0.3 mm 3 mps 722 mmHg 83%
    08:00 +27°C° 0 mm 3 mps 722 mmHg 81%
    09:00 +28°C° 0 mm 3 mps 722 mmHg 78%
    10:00 +28°C° 0 mm 3 mps 723 mmHg 75%
    11:00 +29°C° 0 mm 3 mps 722 mmHg 72%
    12:00 +29°C° 0 mm 3 mps 722 mmHg 69%
    13:00 +29°C° 0 mm 3 mps 721 mmHg 67%
    14:00 +29°C° 0 mm 3 mps 721 mmHg 68%
    15:00 +29°C° 0 mm 2 mps 721 mmHg 69%
    16:00 +29°C° 0 mm 2 mps 721 mmHg 70%
    17:00 +28°C° 0.2 mm 3 mps 721 mmHg 74%
    18:00 +28°C° 0.2 mm 3 mps 722 mmHg 78%
    19:00 +27°C° 0.2 mm 3 mps 722 mmHg 81%
    20:00 +27°C° 0.4 mm 3 mps 722 mmHg 82%
    21:00 +27°C° 0.4 mm 3 mps 723 mmHg 83%
    22:00 +27°C° 0.4 mm 3 mps 723 mmHg 84%
    23:00 +26°C° 0.1 mm 4 mps 722 mmHg 84%

    26 February, Monday

    Time Temperature Precipitation Wind Pressure Humidity
    00:00 +26°C° 0.1 mm 4 mps 722 mmHg 84%
    01:00 +26°C° 0.1 mm 4 mps 722 mmHg 84%
    02:00 +26°C° 0.2 mm 4 mps 722 mmHg 84%
    03:00 +26°C° 0.2 mm 4 mps 721 mmHg 83%
    04:00 +26°C° 0.2 mm 3 mps 721 mmHg 83%
    05:00 +26°C° 0.5 mm 3 mps 721 mmHg 83%
    06:00 +26°C° 0.5 mm 3 mps 722 mmHg 84%
    07:00 +26°C° 0.5 mm 3 mps 722 mmHg 84%
    08:00 +27°C° 0.2 mm 3 mps 722 mmHg 82%
    09:00 +27°C° 0.2 mm 3 mps 722 mmHg 79%
    10:00 +28°C° 0.2 mm 3 mps 723 mmHg 77%
    11:00 +28°C° 1.2 mm 3 mps 722 mmHg 76%
    12:00 +28°C° 1.2 mm 3 mps 722 mmHg 76%
    13:00 +28°C° 1.2 mm 3 mps 721 mmHg 75%
    14:00 +28°C° 0.8 mm 3 mps 721 mmHg 75%
    15:00 +28°C° 0.8 mm 3 mps 721 mmHg 75%
    16:00 +28°C° 0.8 mm 3 mps 721 mmHg 75%
    17:00 +27°C° 0 mm 3 mps 721 mmHg 77%
    18:00 +27°C° 0 mm 3 mps 721 mmHg 78%
    19:00 +27°C° 0 mm 3 mps 722 mmHg 79%
    20:00 +27°C° 0 mm 4 mps 722 mmHg 80%
    21:00 +26°C° 0 mm 4 mps 722 mmHg 81%
    22:00 +26°C° 0 mm 4 mps 722 mmHg 82%
    23:00 +26°C° 0.2 mm 4 mps 722 mmHg 83%
    Show more